This is the latest recevied weather packets stored in our database for station/object KM6YFK-13. If no packets are shown the sender has not sent any weather packets the latest 1 day(s).
| Time | Temp. | Humidity | Pressure | Rain* | Wind** | Luminosity | Snow |
|---|---|---|---|---|---|---|---|
| 1778050710 | 18.33° C | 86% | 1015.9 hPa | 0 mm | - | 0 W/m² | - |
| 1778050410 | 18.33° C | 86% | 1015.8 hPa | 0 mm | - | 0 W/m² | - |
| 1778049810 | 18.33° C | 86% | 1016 hPa | 0 mm | - | 0 W/m² | - |
| 1778049208 | 18.33° C | 85% | 1016.2 hPa | 0 mm | - | 0 W/m² | - |
| 1778048908 | 18.33° C | 85% | 1016.2 hPa | 0 mm | - | 0 W/m² | - |
| 1778047710 | 18.89° C | 84% | 1016.3 hPa | 0 mm | - | 0 W/m² | - |
| 1778047108 | 18.89° C | 84% | 1016.4 hPa | 0 mm | - | 0 W/m² | - |
| 1778045909 | 19.44° C | 82% | 1016.6 hPa | 0 mm | - | 0 W/m² | - |
| 1778045609 | 19.44° C | 81% | 1016.6 hPa | 0 mm | - | 0 W/m² | - |
| 1778045307 | 19.44° C | 81% | 1016.6 hPa | 0 mm | - | 0 W/m² | - |
| 1778045011 | 19.44° C | 81% | 1016.7 hPa | 0 mm | - | 0 W/m² | - |
| 1778044707 | 19.44° C | 80% | 1016.8 hPa | 0 mm | - | 0 W/m² | - |
| 1778044409 | 20° C | 79% | 1016.7 hPa | 0 mm | - | 0 W/m² | - |
| 1778044108 | 20° C | 79% | 1016.7 hPa | 0 mm | - | 0 W/m² | - |
| 1778042910 | 21.11° C | 77% | 1016.8 hPa | 0 mm | - | 0 W/m² | - |
| 1778042608 | 21.67° C | 77% | 1016.8 hPa | 0 mm | - | 0 W/m² | - |
| 1778042309 | 21.67° C | 77% | 1016.8 hPa | 0 mm | - | 0 W/m² | - |
| 1778041709 | 22.22° C | 73% | 1016.9 hPa | 0 mm | - | 0 W/m² | - |
| 1778041109 | 22.22° C | 71% | 1016.8 hPa | 0 mm | - | 0 W/m² | - |
| 1778040808 | 22.78° C | 71% | 1016.8 hPa | 0 mm | - | 0 W/m² | - |
| 1778040510 | 22.78° C | 71% | 1016.8 hPa | 0 mm | - | 0 W/m² | - |
| 1778039911 | 22.78° C | 69% | 1016.6 hPa | 0 mm | - | 0 W/m² | - |
| 1778039308 | 22.78° C | 67% | 1016.5 hPa | 0 mm | - | 0 W/m² | - |
| 1778039010 | 22.78° C | 67% | 1016.5 hPa | 0 mm | - | 0 W/m² | - |
| 1778038708 | 22.78° C | 67% | 1016.4 hPa | 0 mm | - | 0 W/m² | - |
* Rain latest hour (hover to see other rain measurements)
** Current wind speed in m/s (hover to see current wind gust speed)